TimePDT,TemperatureF,Dew PointF,Humidity,Sea Level PressureIn,VisibilityMPH,Wind Direction,Wind SpeedMPH,Gust SpeedMPH,PrecipitationIn,Events,Conditions,WindDirDegrees,DateUTC
12:56 AM,42.1,18.0,38,30.00,10.0,South,4.6,-,N/A,,Clear,170,2013-10-23 07:56:00
1:56 AM,39.9,21.0,47,30.01,10.0,Calm,Calm,-,N/A,,Clear,0,2013-10-23 08:56:00
2:56 AM,39.0,19.0,45,30.01,10.0,SSW,3.5,-,N/A,,Clear,200,2013-10-23 09:56:00
3:56 AM,41.0,19.0,41,30.00,10.0,SSE,4.6,-,N/A,,Clear,160,2013-10-23 10:56:00
4:56 AM,37.0,19.0,48,30.01,10.0,Calm,Calm,-,N/A,,Clear,0,2013-10-23 11:56:00
5:56 AM,33.1,16.0,50,30.01,10.0,SSW,3.5,-,N/A,,Clear,200,2013-10-23 12:56:00
6:16 AM,32.0,15.8,51,30.11,10.0,South,3.5,-,N/A,,Clear,190,2013-10-23 13:16:00
6:56 AM,35.1,19.0,52,30.02,10.0,SW,3.5,-,N/A,,Partly Cloudy,230,2013-10-23 13:56:00
7:56 AM,37.9,19.9,48,30.03,10.0,Calm,Calm,-,N/A,,Partly Cloudy,0,2013-10-23 14:56:00
8:56 AM,46.9,21.0,36,30.04,10.0,Calm,Calm,-,N/A,,Clear,0,2013-10-23 15:56:00
9:56 AM,54.0,21.9,29,30.04,10.0,Calm,Calm,-,N/A,,Scattered Clouds,0,2013-10-23 16:56:00
10:56 AM,59.0,23.0,25,30.03,10.0,Calm,Calm,-,N/A,,Scattered Clouds,0,2013-10-23 17:56:00
11:56 AM,64.0,24.1,22,30.02,10.0,Variable,3.5,-,N/A,,Partly Cloudy,0,2013-10-23 18:56:00
12:56 PM,66.9,23.0,19,30.00,10.0,Calm,Calm,-,N/A,,Partly Cloudy,0,2013-10-23 19:56:00
1:56 PM,69.1,23.0,18,29.97,10.0,West,5.8,-,N/A,,Partly Cloudy,280,2013-10-23 20:56:00
2:56 PM,72.0,23.0,16,29.96,10.0,ENE,3.5,-,N/A,,Partly Cloudy,60,2013-10-23 21:56:00
3:56 PM,73.0,21.9,15,29.95,10.0,NNW,5.8,-,N/A,,Partly Cloudy,340,2013-10-23 22:56:00
4:56 PM,73.0,19.9,14,29.94,10.0,NNE,4.6,-,N/A,,Partly Cloudy,20,2013-10-23 23:56:00
5:56 PM,69.1,19.9,15,29.94,10.0,NNE,3.5,-,N/A,,Partly Cloudy,20,2013-10-24 00:56:00
6:56 PM,59.0,23.0,25,29.94,10.0,NE,6.9,-,N/A,,Partly Cloudy,40,2013-10-24 01:56:00
7:56 PM,53.1,23.0,31,29.94,10.0,NE,5.8,-,N/A,,Clear,50,2013-10-24 02:56:00
8:56 PM,50.0,18.0,28,29.95,10.0,SW,3.5,-,N/A,,Clear,230,2013-10-24 03:56:00
9:56 PM,46.0,19.0,34,29.95,10.0,Calm,Calm,-,N/A,,Clear,0,2013-10-24 04:56:00
10:56 PM,43.0,18.0,37,29.96,10.0,Calm,Calm,-,N/A,,Clear,0,2013-10-24 05:56:00
11:56 PM,41.0,16.0,36,29.97,10.0,Calm,Calm,-,N/A,,Clear,0,2013-10-24 06:56:00